Wind_Speed
32 31 31 33 34 32 33 36 39 38 38 38 38 37 36 35 33 31 28 24 22 21 20 20 19 22 22 24 25 26 28 29 30 30 30 32 32 33 35 35 35 34 37 41
32 31 32 32 34 35 37 37 41 38 38 36 37 40 39 36 34 31 27 24 21 19 21 22 24 26 25 25 25 27 28 31 32 33 32 31 32 34 35 34 35 35 38 35
36 35 35 35 34 34 33 35 37 38 38 40 38 40 39 35 31 30 29 26 25 22 23 26 29 26 27 29 29 30 31 34 36 36 35 35 34 35 37 37 37 36 39 39
39 39 40 41 39 38 38 37 37 36 38 43 35 38 38 39 37 31 30 29 30 29 27 29 30 31 31 31 33 33 33 35 37 37 38 40 40 38 41 40 42 41 43 46
43 44 44 44 44 44 44 44 41 40 43 46 41 43 48 46 43 37 37 37 36 35 35 37 35 36 35 33 35 38 37 36 38 40 41 40 43 41 41 45 45 46 45 40
43 44 44 46 46 47 48 50 50 49 50 52 47 53 56 56 50 44 47 46 42 42 41 46 43 42 40 39 39 39 40 41 40 41 41 43 44 44 44 46 49 50 51 55
43 42 46 48 49 48 50 51 51 51 52 55 55 58 59 60 59 56 55 53 50 50 49 50 49 48 49 46 45 44 45 44 45 43 44 44 42 42 36 45 50 49 50 55
40 37 41 43 43 44 45 47 49 50 50 53 55 56 54 59 62 61 60 59 55 53 54 54 52 53 52 52 55 55 50 49 50 48 48 47 47 47 45 49 50 51 56 58
29 29 28 26 28 30 32 30 34 38 42 45 46 46 50 51 54 56 58 57 57 56 55 56 56 55 52 50 51 55 57 55 53 53 53 52 52 53 55 56 56 57 60 62
14 14 11 15 20 16 17 17 19 19 22 25 28 32 36 36 41 47 49 49 49 54 52 51 52 53 52 52 55 57 57 55 55 56 57 57 58 58 59 58 57 57 62 67
15 21 19 20 22 21 21 25 24 25 24 26 33 37 35 32 33 34 39 43 42 43 44 26 41 50 49 48 55 57 57 61 60 60 62 62 63 63 63 65 65 68 69 71
19 20 25 25 25 24 27 26 27 30 31 31 31 43 41 38 39 38 41 43 41 39 39 45 39 50 54 52 57 57 59 60 62 64 65 66 66 68 69 70 71 69 72 72
23 22 25 34 35 29 30 30 30 33 33 30 34 41 54 49 42 40 42 40 42 37 31 32 35 39 42 45 47 49 51 55 59 64 68 71 72 72 72 73 74 73 71 69
31 30 29 31 41 41 39 37 37 32 35 39 37 40 47 52 53 45 45 42 44 40 30 30 34 38 42 45 48 51 54 55 60 61 60 62 63 63 63 66 64 62 61 62
35 38 36 35 40 47 44 39 42 45 46 42 45 47 50 53 54 53 48 44 43 43 40 41 37 35 40 42 52 47 37 43 46 49 50 52 55 56 56 58 58 57 57 60
41 43 43 43 46 45 44 44 47 49 52 58 53 50 58 65 61 52 50 47 43 44 47 42 35 31 27 29 40 28 39 48 56 48 47 51 50 50 47 51 55 56 55 56
43 44 46 49 53 51 43 50 54 56 59 61 60 60 66 68 70 66 46 50 47 48 48 47 37 30 25 24 27 19 15 55 53 61 52 50 43 41 45 46 48 49 55 60
51 45 45 51 55 52 52 57 58 60 64 64 67 67 66 70 78 72 54 51 51 51 52 46 42 37 28 29 22 18 27 22 40 55 53 50 48 47 46 47 48 52 54 54
46 49 49 52 54 51 55 62 63 64 67 68 73 75 80 80 78 74 51 51 49 53 52 49 45 44 37 39 34 25 37 40 40 48 49 52 49 51 53 51 51 53 52 50
54 54 54 55 57 55 61 67 69 71 72 75 79 84 88 86 87 81 58 53 54 53 52 50 45 42 42 43 40 39 36 37 37 45 46 46 45 49 49 50 51 51 48 41
56 56 55 54 55 60 66 71 74 76 82 84 84 88 90 97 83 69 49 53 58 52 48 48 43 42 38 40 40 41 43 42 37 42 42 43 45 47 47 49 47 47 43 40
57 56 54 55 61 67 72 71 74 85 92 94 93 93 95 82 71 55 45 52 57 58 50 45 45 48 45 41 40 44 47 48 46 43 42 43 43 40 37 40 44 47 43 42
59 61 62 64 67 69 73 82 85 89 92 97 99 100 87 75 58 47 47 52 59 62 52 46 45 44 47 46 44 43 46 50 48 43 42 40 39 36 34 41 44 47 44 43
61 63 61 66 68 73 82 85 86 88 91 95 97 88 83 62 50 46 52 56 58 52 54 48 44 42 43 44 39 42 46 50 47 40 41 39 36 33 37 41 43 44 42 46
68 67 69 67 74 79 87 92 97 99 97 86 89 77 64 54 50 50 56 56 58 56 54 45 44 43 42 39 36 44 45 44 38 41 40 38 38 32 35 40 41 43 44 46
70 70 72 70 81 83 86 94 94 92 86 76 67 57 46 44 50 51 57 56 57 57 54 48 42 41 40 34 32 41 41 43 35 37 36 36 35 29 32 34 39 38 43 49
Wind_Direction
263 268 270 268 268 266 261 260 262 266 271 277 281 282 281 279 280 278 275 275 276 290 276 287 289 289 289 286 285 284 285 283 284 284 287 289 290 291 292 296 296 299 306 310
273 271 273 274 274 270 266 262 263 268 272 272 274 275 275 278 279 273 268 270 277 281 284 281 287 288 292 291 288 285 287 289 290 291 292 291 290 290 293 297 298 302 309 324
269 272 275 274 275 280 281 274 269 269 270 272 271 275 276 278 275 271 266 271 275 277 283 290 289 299 291 292 294 294 294 292 293 294 297 295 292 292 294 295 300 298 300 299
270 270 272 274 277 278 280 275 269 269 269 268 272 275 274 271 268 267 270 273 274 279 280 285 289 287 290 292 293 292 291 291 293 295 295 296 296 296 298 300 299 301 301 302
269 271 273 274 276 276 276 276 275 274 275 274 273 271 275 269 268 273 270 269 271 276 278 282 282 284 283 284 287 289 291 293 293 293 293 293 292 292 295 296 294 294 293 287
275 274 275 274 272 272 272 272 272 272 273 274 275 273 272 274 275 269 270 272 274 276 280 284 286 285 282 282 280 280 282 282 283 286 289 290 291 289 290 290 290 291 289 291
275 278 276 275 275 275 274 274 274 272 270 271 270 270 276 276 276 274 271 273 273 279 279 280 283 282 282 280 278 276 274 277 281 284 283 285 290 290 288 289 290 290 292 294
281 277 276 278 275 275 275 276 276 276 274 274 273 272 271 274 274 273 274 275 272 271 274 275 275 275 278 280 280 278 274 274 276 280 280 283 286 290 290 285 287 293 293 293
273 275 274 278 280 282 279 281 283 282 281 279 280 280 277 276 278 281 278 279 273 272 271 272 273 275 276 277 278 282 285 285 284 284 286 287 287 287 287 287 287 289 291 294
261 274 286 297 303 289 312 315 312 314 316 306 308 301 286 286 284 279 279 276 280 279 279 280 274 274 274 272 269 268 270 274 278 281 281 282 284 286 287 289 288 291 291 295
282 288 294 293 300 317 317 324 326 329 325 327 324 313 314 311 302 302 292 286 281 282 288 268 282 279 277 275 274 273 275 277 278 278 282 284 284 283 285 284 286 288 291 294
273 281 295 290 290 307 308 315 314 318 318 317 313 310 312 316 318 313 305 301 304 295 279 276 268 266 277 278 278 282 283 282 281 282 282 282 283 285 286 287 289 290 292 295
276 275 282 289 290 294 297 300 300 306 305 304 310 313 316 315 309 312 308 313 307 301 303 292 279 278 282 286 285 285 287 285 280 284 282 281 283 285 287 288 290 293 295 296
276 285 289 292 292 289 291 295 299 297 297 300 309 317 318 311 314 306 306 309 305 299 286 275 266 278 279 283 288 293 295 295 293 296 291 287 286 288 289 289 291 292 294 295
282 286 289 287 285 280 285 294 289 295 296 302 305 312 310 312 321 310 299 301 301 291 289 284 288 282 287 293 296 304 321 315 317 317 310 304 297 291 286 288 290 292 293 295
279 282 284 286 290 282 289 286 287 291 293 307 306 308 307 314 314 312 287 285 285 283 282 284 290 294 298 298 292 329 332 326 316 311 307 308 306 299 292 289 288 290 291 292
284 278 284 288 288 280 287 285 289 294 297 300 305 304 306 314 313 311 285 268 273 274 274 276 285 295 309 293 293 320 324 287 295 290 298 300 308 304 300 292 290 288 286 286
285 283 282 280 281 281 288 295 292 289 296 300 300 305 310 310 311 309 290 271 261 267 269 276 280 285 293 297 300 242 233 254 254 276 289 294 294 300 299 296 290 287 293 296
283 286 287 285 278 277 293 292 285 286 291 294 300 303 305 306 306 305 285 260 251 257 261 266 270 276 282 283 291 278 251 257 268 279 288 291 293 293 298 293 292 294 296 300
285 285 285 286 285 280 289 290 286 287 290 298 301 304 305 304 301 300 287 249 242 248 255 262 270 274 275 280 286 287 285 284 269 272 278 288 291 292 293 291 291 294 296 300
284 284 286 285 285 287 286 288 288 287 295 299 300 300 300 300 297 293 272 251 242 247 251 256 261 267 272 276 277 283 283 287 272 266 273 278 288 295 296 294 294 293 297 300
283 285 285 287 288 286 288 288 287 293 296 297 297 296 296 297 292 278 255 235 237 241 241 246 254 261 264 272 278 284 284 291 291 265 268 278 290 292 294 296 294 296 299 302
285 286 283 283 286 286 283 286 288 290 291 292 293 295 298 292 279 260 243 236 234 240 241 243 250 258 264 269 277 278 282 291 294 268 271 279 288 288 297 305 296 297 302 301
291 288 290 291 295 294 292 292 292 292 293 293 293 295 293 285 260 240 235 242 240 246 249 249 252 256 265 270 276 279 282 290 290 272 270 277 285 290 298 299 297 299 301 304
284 286 297 303 293 291 293 293 292 293 294 293 293 290 282 273 253 236 231 239 244 248 250 250 253 257 265 271 274 281 287 292 274 263 268 272 287 285 292 298 300 298 302 302
291 297 296 292 298 302 299 296 296 295 295 292 286 282 276 264 250 235 232 236 241 244 249 250 253 256 265 262 270 279 291 295 264 266 267 276 283 285 290 299 304 304 304 309
Height
10884 10886 10885 10884 10882 10886 10886 10883 10881 10883 10883 10882 10880 10879 10877 10878 10879 10879 10878 10879 10882 10876 10869 10867 10866 10865 10864 10862 10859 10857 10856 10854 10853 10851 10848 10844 10841 10837 10833 10831 10828 10824 10819 10814
10878 10878 10876 10876 10875 10876 10877 10876 10874 10876 10876 10875 10872 10869 10870 10872 10873 10872 10873 10873 10872 10871 10864 10862 10859 10857 10857 10856 10854 10852 10848 10846 10844 10841 10841 10839 10835 10829 10827 10825 10822 10816 10812 10813
10871 10870 10869 10869 10869 10869 10868 10868 10867 10867 10868 10864 10865 10861 10863 10865 10864 10864 10865 10866 10864 10864 10861 10858 10853 10852 10849 10847 10846 10845 10843 10840 10836 10833 10832 10830 10827 10823 10820 10816 10811 10808 10805 10802
10863 10861 10861 10860 10862 10862 10859 10860 10859 10860 10857 10851 10861 10854 10854 10851 10852 10856 10857 10857 10855 10855 10855 10852 10850 10846 10841 10839 10837 10836 10835 10832 10829 10827 10825 10822 10819 10817 10812 10809 10805 10800 10796 10795
10853 10853 10853 10852 10852 10852 10850 10850 10850 10850 10847 10843 10851 10846 10835 10837 10843 10851 10848 10844 10846 10846 10845 10842 10841 10838 10837 10834 10831 10827 10826 10825 10822 10819 10818 10817 10813 10809 10805 10802 10798 10792 10789 10788
10842 10844 10843 10841 10841 10841 10840 10838 10838 10839 10836 10834 10839 10829 10826 10826 10835 10840 10834 10836 10839 10836 10838 10832 10833 10829 10829 10827 10824 10820 10816 10814 10813 10811 10808 10806 10803 10800 10796 10792 10786 10783 10777 10771
10833 10835 10830 10829 10829 10829 10828 10827 10826 10827 10824 10821 10822 10817 10817 10816 10816 10821 10824 10826 10831 10830 10830 10827 10823 10817 10816 10816 10813 10812 10808 10805 10802 10804 10798 10796 10794 10792 10791 10781 10773 10769 10765 10761
10823 10825 10820 10817 10818 10818 10816 10816 10814 10812 10811 10808 10806 10808 10808 10799 10797 10800 10806 10810 10818 10819 10816 10813 10813 10809 10803 10800 10797 10795 10797 10796 10791 10790 10786 10784 10782 10777 10777 10769 10763 10758 10753 10745
10810 10814 10812 10808 10807 10807 10808 10807 10804 10801 10798 10796 10793 10793 10793 10790 10783 10783 10788 10788 10797 10801 10801 10800 10798 10796 10792 10789 10783 10776 10774 10774 10775 10772 10768 10766 10765 10765 10761 10757 10752 10747 10743 10734
10806 10806 10807 10804 10802 10804 10803 10800 10798 10796 10792 10787 10783 10780 10782 10782 10779 10775 10774 10774 10776 10774 10781 10785 10782 10783 10779 10774 10767 10764 10763 10761 10759 10757 10755 10752 10750 10748 10745 10740 10737 10735 10728 10720
10802 10799 10802 10799 10797 10796 10795 10792 10792 10790 10789 10784 10777 10770 10772 10774 10773 10770 10767 10764 10767 10763 10767 10770 10769 10765 10762 10760 10752 10752 10751 10748 10747 10744 10740 10736 10734 10732 10731 10726 10724 10720 10715 10708
10797 10796 10790 10792 10790 10792 10787 10785 10784 10783 10780 10777 10775 10762 10764 10769 10767 10766 10761 10754 10759 10763 10758 10754 10754 10752 10748 10746 10740 10740 10741 10740 10738 10734 10730 10726 10719 10719 10715 10711 10707 10704 10699 10692
10791 10792 10788 10781 10779 10783 10779 10776 10774 10774 10772 10770 10768 10764 10752 10758 10763 10762 10757 10756 10753 10751 10748 10743 10738 10738 10736 10735 10734 10732 10730 10727 10726 10722 10716 10711 10707 10704 10700 10694 10691 10686 10679 10672
10781 10782 10783 10781 10769 10770 10768 10764 10762 10762 10759 10760 10759 10759 10749 10741 10748 10752 10749 10748 10743 10740 10740 10736 10731 10733 10731 10727 10724 10724 10722 10721 10716 10707 10702 10698 10694 10692 10688 10680 10676 10671 10665 10658
10774 10772 10771 10771 10767 10759 10759 10755 10749 10746 10745 10749 10751 10751 10741 10737 10737 10739 10738 10734 10731 10726 10725 10722 10724 10723 10720 10718 10714 10714 10715 10705 10699 10694 10688 10684 10680 10676 10670 10664 10662 10656 10650 10644
10764 10761 10759 10757 10755 10753 10746 10743 10738 10734 10732 10734 10740 10740 10724 10726 10726 10726 10724 10722 10720 10715 10713 10715 10713 10710 10713 10716 10704 10715 10710 10704 10696 10688 10680 10676 10671 10664 10657 10651 10647 10644 10638 10631
10755 10752 10749 10746 10739 10740 10739 10728 10725 10722 10717 10718 10722 10723 10714 10709 10709 10707 10706 10706 10704 10701 10698 10700 10705 10705 10707 10697 10696 10708 10706 10697 10693 10676 10671 10665 10661 10655 10647 10641 10636 10632 10623 10617
10738 10739 10740 10737 10728 10726 10720 10715 10713 10706 10705 10703 10703 10706 10700 10694 10690 10689 10684 10684 10687 10684 10683 10686 10689 10691 10691 10688 10686 10689 10686 10685 10680 10672 10661 10656 10652 10644 10636 10631 10624 10617 10612 10609
10726 10723 10724 10723 10720 10718 10711 10702 10698 10694 10691 10696 10688 10682 10682 10678 10675 10671 10670 10666 10669 10669 10669 10670 10675 10678 10681 10676 10675 10680 10675 10671 10669 10663 10652 10645 10641 10633 10627 10622 10615 10608 10604 10600
10709 10710 10710 10707 10706 10704 10698 10690 10682 10679 10678 10676 10671 10662 10657 10654 10652 10650 10644 10644 10647 10650 10654 10656 10662 10665 10665 10663 10664 10660 10658 10658 10657 10649 10644 10638 10631 10624 10619 10611 10606 10601 10596 10592
10694 10694 10693 10691 10689 10687 10682 10676 10667 10658 10656 10654 10653 10649 10639 10631 10624 10622 10621 10621 10627 10634 10638 10643 10646 10647 10650 10650 10648 10648 10647 10646 10642 10634 10633 10628 10622 10616 10607 10601 10596 10592 10589 10585
10677 10680 10678 10674 10670 10666 10660 10657 10649 10642 10632 10628 10627 10623 10618 10612 10602 10598 10597 10600 10604 10611 10620 10629 10632 10632 10634 10637 10637 10635 10633 10632 10628 10625 10622 10618 10614 10608 10601 10593 10586 10582 10580 10577
10663 10660 10657 10655 10652 10647 10647 10646 10639 10630 10619 10605 10600 10594 10592 10587 10581 10578 10580 10584 10586 10591 10606 10614 10619 10620 10619 10622 10624 10625 10624 10620 10614 10612 10609 10606 10605 10600 10593 10585 10578 10574 10572 10569
10645 10641 10643 10641 10636 10625 10615 10611 10609 10604 10595 10582 10571 10568 10564 10562 10560 10560 10563 10567 10573 10581 10591 10602 10604 10606 10606 10610 10612 10610 10610 10606 10602 10599 10598 10598 10595 10592 10584 10576 10570 10567 10564 10560
10619 10621 10623 10622 10613 10607 10594 10580 10572 10566 10560 10553 10543 10539 10541 10540 10543 10544 10549 10554 10561 10567 10575 10587 10590 10593 10596 10598 10600 10598 10597 10594 10590 10589 10590 10589 10586 10584 10576 10569 10564 10561 10556 10551
10603 10608 10606 10603 10588 10582 10578 10560 10541 10530 10527 10522 10516 10515 10520 10523 10526 10529 10535 10541 10547 10552 10562 10573 10577 10581 10584 10585 10587 10586 10584 10583 10582 10582 10582 10581 10578 10576 10569 10563 10559 10555 10549 10544